Location: Spring Creek
(38.2870°N, 100.2160°W)
Time: 12:59:28
(UTC+00:00)

Cosmos 1606 - Pass Details

Date: 08 May 2021
Orbit: 503 x 526 km, 82.5° (Epoch: 22 June)

Event Time Altitude Azimuth Distance (km) Brightness Sun altitude
Rises 02:02:17 0° 156° (SSE) 2,587 5.8 -5.1°
Reaches altitude 10° 02:04:42 10° 141° (SE) 1,710 4.8 -5.5°
Maximum altitude 02:07:38 22° 89° (E) 1,140 3.9 -6.1°
Drops below altitude 10° 02:10:36 10° 38° (NE) 1,727 5.3 -6.6°
Sets 02:13:03 0° 23° (NNE) 2,622 6.4 -7.0°
